This is the latest recevied weather packets stored in our database for station/object PY3MO-13. If no packets are shown the sender has not sent any weather packets the latest 10 day(s).
| Time | Temp. | Humidity | Pressure | Rain* | Wind** | Luminosity | Snow |
|---|---|---|---|---|---|---|---|
| 1777643872 | 23.33° C | 53% | 1017.8 hPa | 0 mm | - | - | - |
| 1777643571 | 23.33° C | 53% | 1018 hPa | 0 mm | - | - | - |
| 1777643271 | 22.78° C | 54% | 1017.9 hPa | 0 mm | - | - | - |
| 1777642972 | 22.22° C | 55% | 1017.9 hPa | 0 mm | - | - | - |
| 1777642672 | 22.22° C | 59% | 1017.8 hPa | 0 mm | - | - | - |
| 1777642371 | 22.22° C | 60% | 1017.9 hPa | 0 mm | - | - | - |
| 1777642071 | 21.67° C | 60% | 1017.8 hPa | 0 mm | - | - | - |
| 1777641772 | 21.67° C | 60% | 1017.9 hPa | 0 mm | - | - | - |
| 1777641472 | 21.67° C | 60% | 1017.8 hPa | 0 mm | - | - | - |
| 1777641171 | 21.67° C | 60% | 1017.7 hPa | 0 mm | - | - | - |
| 1777640871 | 21.67° C | 60% | 1018.1 hPa | 0 mm | - | - | - |
| 1777640573 | 21.11° C | 61% | 1018 hPa | 0 mm | - | - | - |
| 1777640272 | 21.11° C | 62% | 1018 hPa | 0 mm | - | - | - |
| 1777639971 | 20.56° C | 62% | 1017.7 hPa | 0 mm | - | - | - |
| 1777639671 | 20° C | 62% | 1018 hPa | 0 mm | - | - | - |
| 1777639373 | 20.56° C | 62% | 1018 hPa | 0 mm | - | - | - |
| 1777639072 | 20.56° C | 62% | 1018 hPa | 0 mm | - | - | - |
| 1777638772 | 20° C | 62% | 1018.2 hPa | 0 mm | - | - | - |
| 1777638471 | 20.56° C | 63% | 1018.1 hPa | 0 mm | - | - | - |
| 1777638171 | 20° C | 65% | 1018.2 hPa | 0 mm | - | - | - |
| 1777637872 | 19.44° C | 65% | 1018.1 hPa | 0 mm | - | - | - |
| 1777637573 | 19.44° C | 63% | 1018.1 hPa | 0 mm | - | - | - |
| 1777637272 | 19.44° C | 64% | 1018.3 hPa | 0 mm | - | - | - |
| 1777636972 | 19.44° C | 66% | 1018.4 hPa | 0 mm | - | - | - |
| 1777636671 | 18.89° C | 66% | 1018.4 hPa | 0 mm | - | - | - |
* Rain latest hour (hover to see other rain measurements)
** Current wind speed in m/s (hover to see current wind gust speed)